Weather History for Buckeye, AZ

Change the Weather History Date:

Sunday, January 20, 2013

  Actual Average (KGYR) Record (KGYR)
Temperature  
Mean Temperature 56 °F -  
Max Temperature 73 °F 66 °F 80 °F (2009)
Min Temperature 39 °F 42 °F 26 °F (2002)
Degree Days  
Heating Degree Days 9    
Growing Degree Days 6 (Base 50)    
Moisture  
Dew Point 17 °F    
Average Humidity 25    
Maximum Humidity 42    
Minimum Humidity 10    
Precipitation  
Precipitation 0.00 in - - ()
Sea Level Pressure  
Sea Level Pressure 30.10 in    
Wind  
Wind Speed 6 mph (NW)    
Max Wind Speed 12 mph    
Max Gust Speed -    
Visibility 10 miles    
Events      
Averages and records for this station are not official NWS values.
T = Trace of Precipitation, MM = Missing Value Source: NWS Daily Summary

Daily Weather History Graph

Daily Weather History Graph

Search for Another Location

Airport:

Trip Planner

Search our weather history database for the weather conditions in past years. The results will help you decide how hot, cold, wet, or windy it might be!

Date:

Astronomy

Jan. 20, 2013 Rise Set
Actual Time 7:33 AM MST 5:51 PM MST
Civil Twilight 7:06 AM MST 6:17 PM MST
Nautical Twilight 6:36 AM MST 6:47 PM MST
Astronomical Twilight 6:06 AM MST 7:17 PM MST
Moon 12:53 PM MST (1/20) 2:10 AM MST (1/20)
Length of Visible Light 11h 11m
Length of Day
10h 17m
Waxing Gibbous, 67% of the Moon is Illuminated
Jan 20
Waxing Gibbous
Jan 26
Full
Feb 3
Last Quarter
Feb 10
New
Feb 17
First Quarter

Hourly Weather History & Observations

Time (MST) Temp. Windchill Dew Point Humidity Pressure Visibility Wind Dir Wind Speed Gust Speed Precip Events Conditions
12:15 AM 48.2 °F - 17.6 °F 30% 30.15 in 10.0 mi North 8.1 mph - N/A   Clear
12:35 AM 48.2 °F - 17.6 °F 30% 30.15 in 10.0 mi North 11.5 mph - N/A   Clear
12:55 AM 51.8 °F - 19.4 °F 28% 30.15 in 10.0 mi North 11.5 mph - N/A   Clear
1:15 AM 48.2 °F - 19.4 °F 32% 30.15 in 10.0 mi North 9.2 mph - N/A   Clear
1:35 AM 46.4 °F 42.9 °F 17.6 °F 32% 30.15 in 10.0 mi North 6.9 mph - N/A   Clear
1:55 AM 46.4 °F 42.9 °F 17.6 °F 32% 30.15 in 10.0 mi North 6.9 mph - N/A   Clear
2:15 AM 46.4 °F 42.9 °F 17.6 °F 32% 30.15 in 10.0 mi North 6.9 mph - N/A   Clear
2:55 AM 46.4 °F 41.9 °F 17.6 °F 32% 30.15 in 10.0 mi NNW 9.2 mph - N/A   Clear
3:15 AM 46.4 °F 42.9 °F 19.4 °F 34% 30.16 in 10.0 mi NNE 6.9 mph - N/A   Clear
3:35 AM 44.6 °F 40.2 °F 19.4 °F 37% 30.16 in 10.0 mi NNE 8.1 mph - N/A   Clear
3:55 AM 44.6 °F 41.4 °F 19.4 °F 37% 30.15 in 10.0 mi NNE 5.8 mph - N/A   Clear
4:35 AM 46.4 °F 41.9 °F 17.6 °F 32% 30.14 in 10.0 mi North 9.2 mph - N/A   Clear
4:55 AM 44.6 °F 40.7 °F 17.6 °F 34% 30.14 in 10.0 mi NNE 6.9 mph - N/A   Clear
5:15 AM 41.0 °F 35.2 °F 17.6 °F 39% 30.14 in 10.0 mi North 9.2 mph - N/A   Clear
5:35 AM 44.6 °F 41.4 °F 17.6 °F 34% 30.13 in 10.0 mi North 5.8 mph - N/A   Clear
5:55 AM 41.0 °F 37.1 °F 19.4 °F 42% 30.14 in 10.0 mi ENE 5.8 mph - N/A   Clear
6:15 AM 42.8 °F 39.3 °F 17.6 °F 36% 30.14 in 10.0 mi NNE 5.8 mph - N/A   Clear
6:35 AM 42.8 °F - 17.6 °F 36% 30.15 in 10.0 mi Calm Calm - N/A   Clear
6:55 AM 39.2 °F 35.9 °F 17.6 °F 42% 30.15 in 10.0 mi WNW 4.6 mph - N/A   Clear
7:15 AM 41.0 °F 37.1 °F 17.6 °F 39% 30.15 in 10.0 mi NW 5.8 mph - N/A   Clear
7:55 AM 39.2 °F 35.0 °F 17.6 °F 42% 30.15 in 10.0 mi WNW 5.8 mph - N/A   Clear
8:15 AM 41.0 °F - 17.6 °F 39% 30.16 in 7.0 mi Calm Calm - N/A   Clear
8:35 AM 44.6 °F - 17.6 °F 34% 30.16 in 10.0 mi Calm Calm - N/A   Clear
8:55 AM 46.4 °F - 19.4 °F 34% 30.16 in 8.0 mi Calm Calm - N/A   Clear
9:15 AM 48.2 °F - 19.4 °F 32% 30.17 in 9.0 mi West 3.5 mph - N/A   Clear
9:55 AM 53.6 °F - 17.6 °F 24% 30.18 in 10.0 mi WNW 4.6 mph - N/A   Clear
10:15 AM 55.4 °F - 17.6 °F 23% 30.18 in 10.0 mi WNW 5.8 mph - N/A   Clear
10:35 AM 57.2 °F - 15.8 °F 20% 30.17 in 10.0 mi WNW 6.9 mph - N/A   Clear
10:55 AM 59.0 °F - 17.6 °F 20% 30.17 in 10.0 mi WSW 4.6 mph - N/A   Clear
11:15 AM 60.8 °F - 17.6 °F 19% 30.16 in 10.0 mi SSW 3.5 mph - N/A   Clear
11:35 AM 62.6 °F - 15.8 °F 16% 30.15 in 10.0 mi Calm Calm - N/A   Clear
11:55 AM 64.4 °F - 14.0 °F 14% 30.14 in 10.0 mi Calm Calm - N/A   Clear
12:15 PM 66.2 °F - 14.0 °F 13% 30.13 in 10.0 mi Calm Calm - N/A   Clear
12:35 PM 66.2 °F - 14.0 °F 13% 30.11 in 10.0 mi North 4.6 mph - N/A   Clear
12:55 PM 68.0 °F - 14.0 °F 12% 30.10 in 10.0 mi NNW 4.6 mph - N/A   Clear
1:15 PM 68.0 °F - 12.2 °F 12% 30.09 in 10.0 mi SSE 4.6 mph - N/A   Clear
1:35 PM 69.8 °F - 14.0 °F 12% 30.08 in 10.0 mi SW 3.5 mph - N/A   Clear
1:55 PM 69.8 °F - 15.8 °F 13% 30.07 in 10.0 mi South 3.5 mph - N/A   Clear
2:15 PM 71.6 °F - 15.8 °F 12% 30.06 in 10.0 mi West 3.5 mph - N/A   Clear
2:35 PM 71.6 °F - 12.2 °F 10% 30.05 in 10.0 mi WNW 4.6 mph - N/A   Clear
2:55 PM 71.6 °F - 14.0 °F 11% 30.05 in 10.0 mi SW 4.6 mph - N/A   Clear
3:15 PM 73.4 °F - 14.0 °F 10% 30.04 in 10.0 mi West 3.5 mph - N/A   Clear
3:35 PM 73.4 °F - 14.0 °F 10% 30.03 in 10.0 mi Calm Calm - N/A   Clear
3:55 PM 73.4 °F - 14.0 °F 10% 30.02 in 10.0 mi NNW 3.5 mph - N/A   Clear
4:15 PM 73.4 °F - 15.8 °F 11% 30.02 in 10.0 mi SSW 3.5 mph - N/A   Clear
4:35 PM 71.6 °F - 19.4 °F 14% 30.02 in 10.0 mi SSW 3.5 mph - N/A   Clear
4:55 PM 68.0 °F - 28.4 °F 23% 30.02 in 5.0 mi South 5.8 mph - N/A   Clear
5:15 PM 66.2 °F - 26.6 °F 23% 30.02 in 9.0 mi South 5.8 mph - N/A   Clear
5:35 PM 64.4 °F - 28.4 °F 26% 30.02 in 8.0 mi South 3.5 mph - N/A   Clear
5:55 PM 62.6 °F - 26.6 °F 26% 30.02 in 5.0 mi Calm Calm - N/A   Clear
6:15 PM 62.6 °F - 26.6 °F 26% 30.03 in 10.0 mi Calm Calm - N/A   Clear
6:35 PM 57.2 °F - 24.8 °F 29% 30.03 in 10.0 mi Calm Calm - N/A   Clear
6:55 PM 57.2 °F - 21.2 °F 25% 30.04 in 10.0 mi North 5.8 mph - N/A   Clear
7:15 PM 59.0 °F - 17.6 °F 20% 30.04 in 10.0 mi NW 5.8 mph - N/A   Clear
7:55 PM 55.4 °F - 15.8 °F 21% 30.04 in 10.0 mi NNW 3.5 mph - N/A   Scattered Clouds
8:15 PM 55.4 °F - 17.6 °F 23% 30.04 in 7.0 mi NW 10.4 mph - N/A   Partly Cloudy
8:35 PM 57.2 °F - 14.0 °F 18% 30.04 in 10.0 mi NNW 9.2 mph - N/A   Clear
8:55 PM 55.4 °F - 14.0 °F 20% 30.04 in 10.0 mi NNW 8.1 mph - N/A   Partly Cloudy
9:15 PM 53.6 °F - 14.0 °F 21% 30.05 in 7.0 mi NNW 8.1 mph - N/A   Partly Cloudy
9:35 PM 55.4 °F - 15.8 °F 21% 30.04 in 10.0 mi NNW 9.2 mph - N/A   Mostly Cloudy
9:55 PM 55.4 °F - 15.8 °F 21% 30.04 in 10.0 mi NW 11.5 mph - N/A   Mostly Cloudy
10:15 PM 57.2 °F - 15.8 °F 20% 30.05 in 10.0 mi NNW 10.4 mph - N/A   Partly Cloudy
10:55 PM 55.4 °F - 14.0 °F 20% 30.06 in 10.0 mi North 4.6 mph - N/A   Clear
11:15 PM 55.4 °F - 14.0 °F 20% 30.06 in 10.0 mi NNW 6.9 mph - N/A   Clear
11:35 PM 53.6 °F - 15.8 °F 22% 30.06 in 10.0 mi NNW 8.1 mph - N/A   Clear
11:55 PM 50.0 °F - 14.0 °F 24% 30.06 in 10.0 mi North 8.1 mph - N/A   Clear